[[{"header":{"parameterUnit":"m.s-1","parameterCategory":1,"la1":30.2991,"la2":30.254,"lo1":-89.0895,"lo2":-89.0444,"dy":0.0017,"dx":0.0017,"nx":28,"ny":28,"refTime":"2023-07-28T21:00:00:Z","depth":0,"parameterNumber":2,"parameterNumberName":"U-component_of_WINDS"},"data":[0,0,0,0,0,0,0,0,0,0,0,0,0,0,0,0,0,0,0,0,0,0,0,0,0,0,0,0,0,0,0,0,0,0,0,0,0,0,0,0,0,0,0,0,0,0,0,0,0,0,0,0,0,0,0,0,0,0,2.4177,2.4179,0,2.4322,2.4323,2.4325,2.4312,2.431,2.4308,2.4306,2.4454,2.446,2.4466,0,0,0,0,0,0,0,0,0,0,0,0,0,2.3887,2.3892,2.4177,2.4179,2.4181,2.4321,2.4323,2.4325,2.4313,2.431,2.4307,2.4305,2.4452,2.4459,2.4467,0,0,0,0,0,0,0,0,0,0,0,0,0,2.402,2.3894,2.4177,2.4191,2.4194,2.4321,2.4323,2.4326,2.4313,2.431,2.4307,2.4304,2.445,2.4459,2.4468,2.4589,0,0,2.4495,2.4499,0,0,0,0,0,0,0,0,2.4013,2.4031,2.4187,2.4191,2.4194,2.4296,2.4275,2.4414,2.4314,2.4268,2.4306,2.4302,2.4404,2.4417,2.4451,2.4596,2.4603,2.4496,2.4501,2.4505,2.4508,0,0,0,0,0,0,0,2.4004,2.4025,2.4234,2.419,2.4194,2.419,2.4205,2.4302,2.4353,2.4272,2.4271,2.4289,2.4405,2.4442,2.4454,2.4605,2.4496,2.4504,2.4509,2.4513,2.4852,2.4855,0,0,0,0,0,0,2.3991,2.4017,2.423,2.4239,2.4093,2.4198,2.4215,2.4266,2.4352,2.4362,2.4291,2.4287,2.4429,2.4444,2.446,2.4605,2.4505,2.4514,2.4519,2.4848,2.4853,2.4857,0,0,0,0,0,0,2.3985,2.401,2.4224,2.4128,2.4155,2.4206,2.4264,2.4271,2.4308,2.4366,2.4375,2.432,2.4427,2.4447,2.4556,2.461,2.4518,2.4526,2.4844,2.485,2.4855,2.4898,0,0,0,0,0,0,2.3977,2.4008,2.4056,2.4129,2.416,2.4319,2.4268,2.4276,2.4324,2.432,2.4396,2.4405,2.4426,2.4543,2.4565,2.4621,2.4533,2.4839,2.4847,2.4853,2.4892,2.4904,2.4914,0,0,0,0,0,2.3967,2.4064,2.4059,2.4084,2.4221,2.4322,2.434,2.4361,2.4328,2.4376,2.4412,2.4403,2.46,2.4554,2.4579,2.4638,2.4836,2.4845,2.4852,2.4887,2.4902,2.4914,0,0,0,0,0,0,2.3997,2.4074,2.4069,2.4193,2.4251,2.432,2.4381,2.4377,2.4446,2.444,2.4463,2.4481,2.459,2.4625,2.4572,2.4758,2.4714,2.4727,2.4731,2.4746,2.4757,2.4746,2.454,0,0,0,0,0,2.4018,2.4095,2.4157,2.426,2.4289,2.433,2.4375,2.4386,2.4447,2.4472,2.4517,2.4576,2.4651,2.4701,2.4773,2.4896,2.4911,2.4949,2.496,2.4969,2.4981,2.5045,2.5061,2.4883,2.4883,2.4883,0,0,2.4063,2.4114,2.4161,2.4267,2.4314,2.4391,2.4351,2.4435,2.4492,2.4485,2.459,2.4624,2.4692,2.4808,2.4861,2.484,2.5033,2.498,2.4986,2.4993,2.5055,2.5071,2.5086,2.4889,2.4888,2.4887,0,0,2.4183,2.4231,2.432,2.4366,2.4436,2.4461,2.4482,2.4551,2.4574,2.4679,2.4674,2.4741,2.4871,2.4918,2.4959,2.5092,2.5085,2.5115,2.5174,2.5236,2.525,2.5263,2.5307,2.5324,2.5126,2.5126,2.5126,0,2.423,2.4347,2.4366,2.445,2.4496,2.4491,2.4579,2.4624,2.4714,2.4745,2.472,2.488,2.4925,2.505,2.5082,2.5116,2.5139,2.5107,2.5247,2.5259,2.5271,2.5314,2.5331,2.5129,2.5129,2.5128,2.5128,0,2.4399,2.448,2.4543,2.4628,2.4681,2.4767,2.4798,2.4848,2.4853,2.4881,2.4986,2.504,2.5121,2.5152,2.5159,2.5276,2.5261,2.5241,2.5197,2.5291,2.5331,2.5348,2.5133,2.5132,2.5131,2.5131,0,0,2.4546,2.4637,2.466,2.4697,2.4771,2.4833,2.4918,2.4996,2.5038,2.5099,2.5169,2.5276,2.5257,2.5303,2.5315,2.537,2.5467,2.5343,2.5345,2.5362,2.5596,2.561,2.5629,2.5462,2.5466,2.5468,2.559,0,2.4673,2.4822,2.4839,2.4972,2.5044,2.5038,2.5111,2.5163,2.519,2.5254,2.5284,2.5359,2.5329,2.5357,2.541,2.5444,2.5514,2.5436,2.5526,2.5529,2.5508,2.5651,2.5666,2.5778,2.5606,2.5609,2.5611,0,2.4841,2.4904,2.5043,2.5103,2.5134,2.52,2.527,2.5333,2.5391,2.5406,2.5455,2.5459,2.5543,2.5495,2.5611,2.5557,2.5594,2.5616,2.5621,2.563,2.5575,2.5662,2.5815,2.5831,2.5637,2.5635,2.5633,0,2.4931,2.5051,2.5149,2.5181,2.5254,2.5299,2.5332,2.5386,2.5431,2.5493,2.5521,2.5592,2.5631,2.5685,2.5707,2.5671,2.582,2.5775,2.5834,2.5833,2.5866,2.5864,2.6026,2.5892,2.5892,2.5892,2.5891,0,2.507,2.5155,2.519,2.525,2.5343,2.5361,2.5453,2.5483,2.5531,2.5595,2.5595,2.5655,2.568,2.5744,2.5761,2.5853,2.5871,2.5884,2.5888,2.5884,2.5882,2.5909,2.5901,2.5896,2.5895,2.5894,2.5894,0,2.5187,2.5214,2.532,2.5379,2.5395,2.5461,2.5511,2.5568,2.5592,2.5673,2.5693,2.5732,2.5806,2.5833,2.5925,2.5936,2.6041,2.6039,2.6021,2.6022,2.6078,2.6072,2.6263,2.6288,2.6139,2.614,2.6141,0,2.5274,2.5338,2.5403,2.5445,2.5478,2.5548,2.5592,2.5611,2.5657,2.5725,2.5773,2.5846,2.5907,2.6025,2.6061,2.613,2.6128,2.619,2.6139,2.6131,2.6127,2.6122,2.6127,2.62,2.6201,2.6203,2.6204,0,2.5423,2.5432,2.5496,2.5563,2.5616,2.567,2.5723,2.5758,2.5784,2.5835,2.5911,2.5957,2.6048,2.612,2.6189,2.6222,2.6217,2.6219,2.6236,2.6233,2.6219,2.6224,2.6046,2.6215,2.6214,2.6213,2.6212,2.6212,2.5527,2.5582,2.5634,2.5704,2.5745,2.5793,2.5848,2.5878,2.5941,2.6015,2.6023,2.6103,2.6155,2.6247,2.6283,2.6345,2.6327,2.6353,2.6359,2.6364,2.6367,2.6209,2.6358,2.6357,2.6357,2.6357,2.6357,0,2.5674,2.5706,2.577,2.5842,2.5896,2.5885,2.5942,2.5987,2.6058,2.6107,2.6164,2.6249,2.6317,2.6357,2.6425,2.6467,2.6466,2.6484,2.6481,2.6488,2.638,2.6358,2.6484,2.6484,2.6484,2.6484,2.6484,2.6484,2.5757,2.5849,2.5863,2.5974,2.6005,2.6083,2.6116,2.6159,2.6197,2.6291,2.6348,2.6372,2.6417,2.6487,2.6549,2.6559,2.6583,2.6603,2.6611,2.6509,2.6496,2.6484,2.6462,2.6608,2.6609,2.6713,2.6714,2.6715]},{"header":{"parameterUnit":"m.s-1","parameterCategory":1,"la1":30.2991,"la2":30.254,"lo1":-89.0895,"lo2":-89.0444,"dy":0.0017,"dx":0.0017,"nx":28,"ny":28,"refTime":"2023-07-28T21:00:00:Z","depth":0,"parameterNumber":3,"parameterNumberName":"V-component_of_WINDS"},"data":[0,0,0,0,0,0,0,0,0,0,0,0,0,0,0,0,0,0,0,0,0,0,0,0,0,0,0,0,0,0,0,0,0,0,0,0,0,0,0,0,0,0,0,0,0,0,0,0,0,0,0,0,0,0,0,0,0,0,1.552,1.5521,0,1.5581,1.5582,1.5583,1.5547,1.5545,1.5544,1.5542,1.5606,1.5609,1.5612,0,0,0,0,0,0,0,0,0,0,0,0,0,1.5372,1.5375,1.552,1.5521,1.5522,1.5581,1.5582,1.5583,1.5548,1.5545,1.5543,1.5541,1.5605,1.5609,1.5613,0,0,0,0,0,0,0,0,0,0,0,0,0,1.5435,1.5376,1.552,1.5511,1.5511,1.5581,1.5582,1.5583,1.5548,1.5545,1.5543,1.554,1.5603,1.5608,1.5613,1.5696,0,0,1.5628,1.5631,0,0,0,0,0,0,0,0,1.5431,1.5441,1.5512,1.5512,1.5512,1.5554,1.5553,1.5621,1.5549,1.5534,1.5542,1.5539,1.5591,1.5597,1.5614,1.5699,1.5702,1.5629,1.5632,1.5634,1.5635,0,0,0,0,0,0,0,1.5427,1.5438,1.5544,1.5513,1.5513,1.5504,1.551,1.5566,1.5576,1.5535,1.5533,1.554,1.559,1.5609,1.5615,1.5702,1.5629,1.5633,1.5636,1.5638,1.5856,1.5858,0,0,0,0,0,0,1.5423,1.5434,1.5542,1.5546,1.5464,1.5509,1.5515,1.5543,1.5575,1.5578,1.5542,1.5538,1.5602,1.5609,1.5617,1.5714,1.5634,1.5639,1.5641,1.5853,1.5856,1.5859,0,0,0,0,0,0,1.542,1.5433,1.554,1.549,1.5502,1.5514,1.5545,1.5546,1.5564,1.5581,1.5583,1.556,1.56,1.561,1.5676,1.5716,1.5641,1.5645,1.5849,1.5854,1.5858,1.5911,0,0,0,0,0,0,1.5416,1.5433,1.5464,1.5491,1.5505,1.5598,1.5548,1.5549,1.5573,1.5568,1.5598,1.56,1.5599,1.5669,1.5681,1.5722,1.5649,1.5846,1.5851,1.5856,1.5905,1.5916,1.5925,0,0,0,0,0,1.5411,1.5478,1.5466,1.5479,1.5545,1.5601,1.5609,1.5606,1.5576,1.5608,1.5618,1.5599,1.571,1.5676,1.5689,1.5732,1.5843,1.585,1.5856,1.5901,1.5914,1.5925,0,0,0,0,0,0,1.5457,1.5481,1.5469,1.5546,1.5571,1.5594,1.5635,1.562,1.5655,1.5649,1.5644,1.5651,1.5719,1.5732,1.5694,1.5812,1.5772,1.5781,1.5801,1.5814,1.5824,1.5819,1.5653,0,0,0,0,0,1.5476,1.5519,1.5537,1.5603,1.5617,1.5623,1.5647,1.5642,1.5669,1.568,1.5695,1.5721,1.5762,1.5789,1.5827,1.5907,1.5912,1.5943,1.5953,1.5961,1.5969,1.601,1.6023,1.588,1.588,1.588,0,0,1.5516,1.5534,1.5562,1.5613,1.5632,1.5676,1.5633,1.5682,1.5714,1.5687,1.575,1.5762,1.5791,1.5863,1.5896,1.5876,1.6009,1.5969,1.5975,1.5979,1.6018,1.6031,1.6043,1.5884,1.5883,1.5883,0,0,1.5611,1.563,1.5686,1.5705,1.5734,1.5738,1.5751,1.5776,1.5783,1.5845,1.5825,1.5863,1.5934,1.5954,1.5974,1.6074,1.6057,1.6087,1.6139,1.6179,1.619,1.62,1.6235,1.6247,1.6095,1.6095,1.6095,0,1.5657,1.5722,1.5716,1.5766,1.5788,1.5765,1.5821,1.5841,1.5881,1.5897,1.5874,1.596,1.5978,1.6054,1.6078,1.6095,1.611,1.6084,1.6189,1.6199,1.6208,1.6241,1.6254,1.6098,1.6098,1.6098,1.6097,0,1.5776,1.5822,1.5864,1.5902,1.5929,1.5982,1.5983,1.6012,1.6004,1.6009,1.6072,1.6093,1.6133,1.6151,1.6145,1.6226,1.6212,1.619,1.6149,1.6226,1.6256,1.6269,1.6103,1.6102,1.6101,1.61,0,0,1.5904,1.5936,1.5951,1.5967,1.5997,1.6031,1.6082,1.6122,1.6145,1.6173,1.6215,1.6274,1.6252,1.6274,1.627,1.6305,1.6381,1.6278,1.6278,1.6295,1.647,1.6486,1.6501,1.637,1.6372,1.6374,1.6467,0,1.5999,1.6088,1.6083,1.6166,1.6207,1.6184,1.6228,1.625,1.6256,1.6292,1.6299,1.634,1.6309,1.6322,1.6356,1.6365,1.6416,1.6358,1.6408,1.641,1.6401,1.6517,1.6535,1.6622,1.6479,1.6481,1.6482,0,1.6123,1.6154,1.624,1.6261,1.6278,1.6318,1.6352,1.6387,1.6411,1.6413,1.6437,1.6425,1.6476,1.6434,1.6502,1.6463,1.6483,1.649,1.6493,1.6498,1.6451,1.6524,1.665,1.6662,1.6501,1.65,1.6498,0,1.6205,1.6268,1.6328,1.6342,1.6369,1.6397,1.6409,1.6431,1.6454,1.6484,1.6498,1.6534,1.6554,1.6581,1.658,1.6549,1.6649,1.6607,1.6651,1.6651,1.6673,1.6672,1.6804,1.6687,1.6687,1.6687,1.6687,0,1.6312,1.6366,1.6365,1.6401,1.646,1.6453,1.6512,1.6521,1.654,1.6577,1.656,1.6596,1.6591,1.6627,1.6626,1.6682,1.6691,1.6694,1.6693,1.6695,1.6694,1.6708,1.6701,1.669,1.669,1.6689,1.6688,0,1.6414,1.6416,1.6479,1.6498,1.6503,1.6546,1.6562,1.6596,1.66,1.6647,1.6658,1.6664,1.6705,1.6706,1.6753,1.6752,1.682,1.6813,1.6812,1.681,1.6854,1.6849,1.6998,1.7017,1.6889,1.689,1.6892,0,1.6482,1.6522,1.6545,1.6568,1.6582,1.662,1.6643,1.6638,1.6662,1.6691,1.6722,1.676,1.6791,1.6857,1.6865,1.6901,1.6893,1.6943,1.6899,1.6899,1.6893,1.689,1.6893,1.6952,1.6953,1.6954,1.6955,0,1.6602,1.66,1.6634,1.6667,1.6694,1.6721,1.6745,1.6765,1.6762,1.679,1.6831,1.6855,1.6901,1.694,1.6973,1.6985,1.697,1.6969,1.6981,1.6983,1.6981,1.6981,1.6834,1.6966,1.6965,1.6964,1.6963,1.6963,1.6688,1.6722,1.6743,1.678,1.6797,1.682,1.6852,1.6859,1.6893,1.693,1.6925,1.697,1.6991,1.7034,1.7049,1.7084,1.7066,1.7084,1.7088,1.7093,1.7097,1.6975,1.709,1.709,1.7089,1.7089,1.7089,0,1.6806,1.6817,1.6852,1.6885,1.6914,1.6896,1.6921,1.6947,1.6986,1.7007,1.7037,1.7083,1.7119,1.713,1.7165,1.7191,1.7184,1.72,1.7198,1.72,1.7111,1.7097,1.7204,1.7204,1.7204,1.7204,1.7204,1.7204,1.6871,1.6926,1.6927,1.699,1.7001,1.7045,1.7061,1.7081,1.7097,1.7149,1.7179,1.7185,1.7201,1.7237,1.7269,1.7271,1.7284,1.7303,1.7302,1.7218,1.7207,1.7196,1.7182,1.7306,1.7306,1.7389,1.7389,1.739]}]]